Regional Weather Roundup
Issued by NWS Boston, MA

Current Version | Previous Version | Text Only | Print | Product List | Glossary Off
Versions: 1 2 3 4 5 6 7 8 9 10 11 12 13 14 15 16 17 18 19 20 21 22 23 24 25 26 27 28 29 30 31 32 33 34 35 36 37 38 39 40 41 42 43 44 45 46 47 48 49 50
179 ASUS41 KBOX 300510 RWRBOX REGIONAL WEATHER ROUNDUP NATIONAL WEATHER SERVICE TAUNTON MA 100 AM EDT SUN APR 30 2017 NOTE: "FAIR" INDICATES FEW OR NO CLOUDS BELOW 12,000 FEET WITH NO SIGNIFICANT WEATHER AND/OR OBSTRUCTIONS TO VISIBILITY. MAZALL-300600- EASTERN MASSACHUSETTS CITY SKY/WX TMP DP RH WIND PRES REMARKS BOSTON CLEAR 64 41 42 W14 30.07R BEVERLY CLEAR 59 44 57 NW9 30.06R LAWRENCE CLEAR 63 39 41 NW8G20 30.10R BEDFORD CLEAR 61 38 42 W10 30.07R BLUE HILL N/A 61 38 42 NW14G21 30.06R NORWOOD CLEAR 64 39 39 NW12 30.07R MARSHFIELD CLEAR 66 41 39 W9G17 30.04R PLYMOUTH CLEAR 64 42 44 W10 30.06R TAUNTON CLEAR 65 39 38 VRB6G17 30.06R NEW BEDFORD CLEAR 64 41 42 NW10G18 30.06R $$ MAZALL-300600- CAPE COD AND THE ISLANDS CITY SKY/WX TMP DP RH WIND PRES REMARKS FALMOUTH PTCLDY 63 46 55 MISG 30.06R HYANNIS CLEAR 66 45 46 W9 30.02R CHATHAM CLOUDY 67 48 50 NW9 30.03R PROVINCETOWN CLEAR 55 46 71 W12 30.04R NANTUCKET CLOUDY 66 48 52 W16G22 30.04R MARTHAS VNYRD CLOUDY 64 46 52 NW8 30.05R $$ MAZALL-300600- CENTRAL AND WESTERN MASSACHUSETTS CITY SKY/WX TMP DP RH WIND PRES REMARKS WORCESTER CLEAR 56 36 47 W9 30.12R FITCHBURG CLEAR 60 41 49 NW9 30.10R ORANGE CLEAR 56 39 53 W12 30.12R SPRINGFIELD CLEAR 56 38 49 W12 30.14R WESTFIELD CLEAR 57 37 47 NW10 30.15R NORTH ADAMS CLEAR 51 35 54 W12G21 30.18R PITTSFIELD CLEAR 49 32 52 VRB5 30.16R $$ RIZALL-300600- RHODE ISLAND CITY SKY/WX TMP DP RH WIND PRES REMARKS PROVIDENCE CLEAR 65 40 39 NW10 30.09R NEWPORT CLEAR 63 41 44 NW8G18 30.08R BLOCK ISLAND CLEAR 63 50 62 W10 30.09R SMITHFIELD CLEAR 61 37 41 NW7 30.10R WESTERLY CLEAR 67 46 47 NW9 30.10R $$ CTZALL-300600- CONNECTICUT CITY SKY/WX TMP DP RH WIND PRES REMARKS BRADLEY INTL PTCLDY 60 37 42 N8 30.14R HARTFORD CLEAR 63 41 44 NW12G22 30.12R BRIDGEPORT CLEAR 67 52 58 NW6 30.10R DANBURY CLEAR 60 52 74 N3 30.14R GROTON CLEAR 66 46 48 NW12 30.09R NEW HAVEN CLEAR 65 50 58 N6 30.10R CHESTER FAIR 64 48 55 NW8G15 30.10S MERIDEN CLEAR 65 47 52 N8 30.12R WILLIMANTIC CLEAR 64 40 41 N12G23 30.12R OXFORD CLEAR 61 45 55 N9 30.14R $$ MEZ002-015-021-024-NHZ003-005-008-011-012-014-VTZ005-008-300600- NORTHERN NEW ENGLAND CITY SKY/WX TMP DP RH WIND PRES REMARKS PORTLAND ME CLEAR 53 30 41 N22 30.07R BANGOR ME CLEAR 45 27 49 NW20G29 30.07R CONCORD NH CLEAR 55 34 45 NW10 30.10R MANCHESTER NH CLEAR 59 34 39 NW8 30.08R NASHUA NH CLEAR 60 36 40 NW12G17 N/A PORTSMOUTH NH CLEAR 60 34 38 NW15 30.06R JAFFREY NH CLEAR 56 41 57 VRB5 30.12R KEENE NH CLEAR 57 35 43 NW8 30.13R BURLINGTON VT CLEAR 44 26 49 N7 30.25R MT. WASHINGTON FOG 18 18 100 NW66 N/A VSB 1/8 WCI -8 $$ NYZ052-076-300600- EASTERN NEW YORK CITY SKY/WX TMP DP RH WIND PRES REMARKS ALBANY CLEAR 51 33 50 NW12G23 30.21R NEW YORK CITY CLOUDY 68 51 54 NW9 30.11S $$ ANZALL-300600- MARINE OBSERVATIONS STATION/POSITION TIME TEMP WIND PRES VSBY WAVE AIR SEA DIR/SP/G HT/PER (UTC) (F) (DEG/KT/KT) (MB) (MI) (FT/S) BOSTON BUOY 0350 58 49 280/ 14/ 17 1015.0 2/ 8 BUZZARDS BAY 0400 62 290/ 18/ 18 1017.8R NANTUCKET SOUND 0450 50 1016.7R 1/ 2 MASS BAY-STELLWA 0404 56 47 280/ 12/ 14 1015.4R 2/ 8 ISLE OF SHOALS 0400 63 320/ 19/ 23 1016.0R S OF BLOCK IS 0455 48 N/A 4/ 7 $$ ......................KEY......................... SKY/WX - SKY CONDITION/PRESENT WEATHER TMP - TEMPERATURE IN FAHRENHEIT DWPT - DEWPOINT IN FAHRENHEIT RH - RELATIVE HUMIDITY IN PERCENT WIND - DIRECTION AND SPEED IN MPH PRES - MEAN SEA LEVEL PRESSURE IN INCHES OF HG WCI - WIND CHILL INDEX VSB - VISIBILITY IN MILES HX - HEAT INDEX TC - TEMPERATURE IN CELSIUS VRB - VARIABLE WIND DIRECTION N/A - NOT AVAILABLE

USA.gov is the U.S. government's official web portal to all federal, state and local government web resources and services.